TimeEDT,TemperatureF,Dew PointF,Humidity,Sea Level PressureIn,VisibilityMPH,Wind Direction,Wind SpeedMPH,Gust SpeedMPH,PrecipitationIn,Events,Conditions,WindDirDegrees,DateUTC
12:53 AM,50.0,45.0,83,29.89,8.0,NW,11.5,-,N/A,,Overcast,320,2013-05-11 04:53:00
1:53 AM,50.0,45.0,83,29.90,8.0,WNW,8.1,-,N/A,,Overcast,300,2013-05-11 05:53:00
2:53 AM,48.9,45.0,86,29.90,5.0,WNW,9.2,-,N/A,,Overcast,290,2013-05-11 06:53:00
3:53 AM,48.0,44.1,86,29.90,5.0,WNW,10.4,-,N/A,,Overcast,300,2013-05-11 07:53:00
4:53 AM,46.9,44.1,90,29.90,5.0,NW,10.4,-,N/A,,Overcast,310,2013-05-11 08:53:00
5:33 AM,46.4,44.6,93,29.92,3.0,WNW,9.2,-,N/A,,Overcast,300,2013-05-11 09:33:00
5:53 AM,46.9,44.1,90,29.91,3.0,NW,6.9,-,N/A,,Overcast,310,2013-05-11 09:53:00
6:23 AM,46.4,44.6,93,29.92,3.0,WNW,5.8,-,N/A,,Overcast,290,2013-05-11 10:23:00
6:37 AM,46.4,44.6,93,29.91,2.5,NW,8.1,-,N/A,,Overcast,310,2013-05-11 10:37:00
6:53 AM,46.9,44.1,90,29.91,2.0,NW,8.1,-,N/A,,Overcast,310,2013-05-11 10:53:00
7:04 AM,46.4,44.6,93,29.92,1.5,WNW,8.1,-,N/A,,Overcast,300,2013-05-11 11:04:00
7:36 AM,46.4,44.6,93,29.91,3.0,NW,6.9,-,N/A,,Overcast,320,2013-05-11 11:36:00
7:53 AM,46.9,44.1,90,29.91,6.0,NW,8.1,-,N/A,,Overcast,320,2013-05-11 11:53:00
8:41 AM,46.4,42.8,87,29.92,9.0,NW,11.5,-,N/A,,Overcast,320,2013-05-11 12:41:00
8:53 AM,46.9,43.0,86,29.91,7.0,NW,9.2,-,N/A,,Overcast,310,2013-05-11 12:53:00
9:53 AM,46.0,42.1,86,29.93,6.0,West,9.2,-,N/A,,Overcast,270,2013-05-11 13:53:00
10:53 AM,46.9,43.0,86,29.93,4.0,West,10.4,-,N/A,,Overcast,270,2013-05-11 14:53:00
11:53 AM,48.9,44.1,83,29.92,6.0,West,6.9,-,N/A,,Haze,280,2013-05-11 15:53:00
12:25 PM,50.0,44.6,82,29.93,7.0,West,9.2,-,N/A,,Overcast,280,2013-05-11 16:25:00
12:53 PM,50.0,45.0,83,29.92,8.0,West,10.4,-,N/A,,Overcast,280,2013-05-11 16:53:00
1:53 PM,54.0,46.0,75,29.90,10.0,West,13.8,17.3,N/A,,Overcast,260,2013-05-11 17:53:00
2:13 PM,53.6,46.4,77,29.90,10.0,West,11.5,-,N/A,,Overcast,280,2013-05-11 18:13:00
2:53 PM,55.0,46.9,74,29.89,8.0,WSW,10.4,17.3,N/A,,Overcast,240,2013-05-11 18:53:00
3:28 PM,57.2,46.4,67,29.88,10.0,West,9.2,-,N/A,,Scattered Clouds,270,2013-05-11 19:28:00
3:53 PM,59.0,48.0,67,29.87,10.0,WSW,13.8,-,N/A,,Scattered Clouds,240,2013-05-11 19:53:00
4:53 PM,59.0,48.0,67,29.86,10.0,WSW,13.8,23.0,N/A,,Overcast,250,2013-05-11 20:53:00
5:53 PM,61.0,50.0,67,29.84,10.0,WSW,16.1,20.7,N/A,,Mostly Cloudy,250,2013-05-11 21:53:00
6:50 PM,51.8,44.6,76,29.89,6.0,North,26.5,36.8,0.01,Rain,Light Rain,350,2013-05-11 22:50:00
6:53 PM,51.1,43.0,74,29.89,6.0,North,25.3,36.8,0.01,Rain,Light Rain,350,2013-05-11 22:53:00
7:00 PM,51.8,42.8,71,29.90,10.0,North,18.4,-,0.00,Rain,Light Rain,350,2013-05-11 23:00:00
7:53 PM,51.1,41.0,68,29.93,10.0,North,15.0,-,0.00,,Mostly Cloudy,360,2013-05-11 23:53:00
8:53 PM,48.9,39.9,71,29.95,10.0,North,10.4,-,N/A,,Clear,350,2013-05-12 00:53:00
9:53 PM,48.0,37.0,66,29.98,10.0,NNW,9.2,-,N/A,,Clear,330,2013-05-12 01:53:00
10:53 PM,45.0,37.0,74,30.00,10.0,NW,5.8,-,N/A,,Partly Cloudy,310,2013-05-12 02:53:00
11:53 PM,45.0,37.0,74,30.01,10.0,WNW,6.9,-,N/A,,Clear,290,2013-05-12 03:53:00